Location: Newark
(40.9833°N, 0.0333°W)
Time: 01:42:54
(UTC+00:00)

deb Explorer IX - Pass Details

Date: 03 November 2020
Orbit: 537 x 1105 km, 38.8° (Epoch: 02 December)

Event Time Altitude Azimuth Distance (km) Brightness Sun altitude
Rises 09:58:45 0° 269° (W) 3,713 ? 28.7°
Reaches altitude 10° 10:03:44 10° 237° (WSW) 2,866 ? 29.2°
Maximum altitude 10:05:42 11° 221° (SW) 2,801 ? 29.3°
Drops below altitude 10° 10:07:41 10° 204° (SSW) 2,920 ? 29.5°
Sets 10:12:58 0° 173° (S) 3,905 ? 29.9°
